User: anonymous   Login
Location: Dead Woman Crossing
(43.5369°N, 106.3228°W)
Time: 02:21:22
(UTC+00:00)
Language:

NOAA 16 DEB - Orbit

View from above orbital plane
View from above orbital plane
View from above satellite
View from above satellite

Ground track
Ground track

The orbit data is extracted from the following two-line orbital elements,

1 42429U 00055TZ  22341.94845883  .00004792  00000-0  26271-2 0  9994
2 42429  98.8636  40.7427 0034281 282.0359  77.6971 14.11980401323154
Epoch (UTC): 07 December 2022 22:45:46
Eccentricity: 0.0034281
inclination: 98.8636°
perigee height: 828 km
apogee height: 877 km
right ascension of ascending node: 40.7427°
argument of perigee: 282.0359°
revolutions per day: 14.11980401
mean anomaly at epoch: 77.6971°
orbit number at epoch: 32315

The dashed part of the orbit path shows where the satellite is in the earth's shadow,  

DLR